DAL530 KATL-KDEN

Flight info

Callsign DAL530
Flight time N/A
Altitude 32000
Route CUTTN2 HANKO MEM PER GCK KIISS CLASH5
Aircraft B752/M-SDE3FGHIM3RWXY/LB1

Departure

Time 2026-05-07 18:26
Airport Hartsfield Jackson Atlanta International Airport (KATL)

Arrival

Time N/A
Airport Denver International Airport (KDEN)
Time Latitude Longitude Altitude Speed Heading
2026-05-07 18:06 33.64209 -84.43972 1020 ft 0 kts 89°
2026-05-07 18:15 33.64208 -84.43989 1019 ft 2 kts 89°
2026-05-07 18:15 33.64208 -84.44006 1020 ft 2 kts 89°
2026-05-07 18:15 33.64208 -84.44025 1020 ft 2 kts 90°
2026-05-07 18:16 33.64204 -84.44042 1020 ft 2 kts 47°
2026-05-07 18:16 33.64191 -84.44051 1020 ft 2 kts
2026-05-07 18:16 33.64177 -84.44050 1020 ft 1 kts 358°
2026-05-07 18:16 33.64172 -84.44049 1020 ft 0 kts
2026-05-07 18:18 33.64175 -84.44049 1020 ft 1 kts
2026-05-07 18:19 33.64195 -84.44049 1020 ft 3 kts
2026-05-07 18:19 33.64226 -84.44049 1021 ft 4 kts
2026-05-07 18:19 33.64271 -84.44049 1022 ft 7 kts 360°
2026-05-07 18:19 33.64323 -84.44050 1023 ft 6 kts 359°
2026-05-07 18:20 33.64372 -84.44048 1023 ft 8 kts
2026-05-07 18:20 33.64424 -84.43993 1022 ft 13 kts 76°
2026-05-07 18:20 33.64444 -84.43864 1019 ft 17 kts 80°
2026-05-07 18:20 33.64458 -84.43714 1016 ft 18 kts 86°
2026-05-07 18:21 33.64459 -84.43554 1013 ft 20 kts 90°
2026-05-07 18:21 33.64462 -84.43384 1011 ft 21 kts 88°
2026-05-07 18:21 33.64459 -84.43200 1007 ft 22 kts 92°
2026-05-07 18:21 33.64458 -84.43008 1006 ft 23 kts 89°
2026-05-07 18:22 33.64461 -84.42809 1003 ft 24 kts 90°
2026-05-07 18:22 33.64467 -84.42673 1000 ft 25 kts 85°
2026-05-07 18:22 33.64468 -84.42379 989 ft 26 kts 89°
2026-05-07 18:22 33.64491 -84.42217 982 ft 18 kts 62°
2026-05-07 18:23 33.64540 -84.42084 977 ft 17 kts 83°
2026-05-07 18:23 33.64543 -84.41927 973 ft 19 kts 89°
2026-05-07 18:23 33.64544 -84.41757 972 ft 20 kts 91°
2026-05-07 18:23 33.64542 -84.41590 972 ft 20 kts 90°
2026-05-07 18:24 33.64543 -84.41428 974 ft 18 kts 91°
2026-05-07 18:24 33.64542 -84.41278 976 ft 20 kts 90°
2026-05-07 18:24 33.64542 -84.41093 978 ft 22 kts 90°
2026-05-07 18:24 33.64543 -84.40910 977 ft 22 kts 89°
2026-05-07 18:25 33.64562 -84.40773 978 ft 14 kts 75°
2026-05-07 18:25 33.64570 -84.40655 976 ft 14 kts 90°
2026-05-07 18:25 33.64599 -84.40572 976 ft 9 kts 17°
2026-05-07 18:25 33.64653 -84.40566 978 ft 5 kts 358°
2026-05-07 18:26 33.64679 -84.40602 980 ft 8 kts 279°
2026-05-07 18:26 33.64681 -84.40801 983 ft 57 kts 270°
2026-05-07 18:26 33.64680 -84.41694 975 ft 158 kts 270°
2026-05-07 18:26 33.64673 -84.43211 1735 ft 199 kts 272°
2026-05-07 18:27 33.64655 -84.44878 3253 ft 214 kts 272°
2026-05-07 18:27 33.64801 -84.46627 4681 ft 228 kts 282°
2026-05-07 18:27 33.65152 -84.48507 6132 ft 247 kts 282°
2026-05-07 18:27 33.65520 -84.50405 8041 ft 245 kts 282°
2026-05-07 18:28 33.65880 -84.52304 9641 ft 246 kts 281°
2026-05-07 18:28 33.66252 -84.54285 11049 ft 253 kts 281°
2026-05-07 18:28 33.66639 -84.56368 12133 ft 271 kts 281°
2026-05-07 18:28 33.67058 -84.58643 13241 ft 288 kts 281°
2026-05-07 18:29 33.67465 -84.61026 14270 ft 307 kts 280°
2026-05-07 18:29 33.67903 -84.63599 15253 ft 328 kts 279°
2026-05-07 18:29 33.68356 -84.66251 16723 ft 333 kts 278°
2026-05-07 18:29 33.68811 -84.68936 18270 ft 337 kts 277°
2026-05-07 18:30 33.69271 -84.71667 19674 ft 343 kts 278°
2026-05-07 18:30 33.69747 -84.74483 20984 ft 351 kts 278°
2026-05-07 18:30 33.70389 -84.77304 22155 ft 362 kts 283°
2026-05-07 18:30 33.71162 -84.80170 23435 ft 366 kts 282°
2026-05-07 18:31 33.71938 -84.83076 24607 ft 372 kts 283°
2026-05-07 18:31 33.72731 -84.86033 25810 ft 377 kts 283°
2026-05-07 18:31 33.73528 -84.89001 26971 ft 380 kts 283°
2026-05-07 18:31 33.74336 -84.92007 27995 ft 385 kts 283°